Regional Weather Roundup
Issued by NWS

Home | Current Version | Previous Version | Graphics & Text | Print | Product List | Glossary On
Versions: 1 2 3 4 5 6 7 8 9 10 11 12 13 14 15 16 17 18 19 20 21 22 23 24 25 26 27 28 29 30 31 32 33 34 35 36 37 38 39 40 41 42 43 44 45 46 47 48 49 50
000
ASUS43 KFSD 311502
RWRSD

WEATHER ROUNDUP FOR SOUTH DAKOTA
NATIONAL WEATHER SERVICE SIOUX FALLS SD
900 AM CST SAT JAN 31 2015

NOTE: "FAIR" INDICATES FEW OR NO CLOUDS BELOW 12,000 FEET WITH NO
SIGNIFICANT WEATHER AND/OR OBSTRUCTIONS TO VISIBILITY.


SDZ001>005-009-010-012>017-311600-
NORTHWEST AND NORTH CENTRAL SOUTH DAKOTA

CITY           SKY/WX    TMP DP  RH WIND       PRES   REMARKS
BUFFALO          N/A     24  22  91 E13       29.96R WCI  12
FAITH            N/A     22  19  89 E17       30.07R WCI   8
MOBRIDGE       CLOUDY    23  20  88 E15       30.15S WCI  10
$$

SDZ012>016-024>037-041>051-057-063-072>074-311600-
SOUTHWEST AND SOUTH CENTRAL SOUTH DAKOTA

CITY           SKY/WX    TMP DP  RH WIND       PRES   REMARKS
RAPID CTY ARPT CLOUDY    26  23  88 E6        30.01S WCI  19
PIERRE         CLOUDY    23  21  92 E17       30.14R FOG     WCI   9
CUSTER         CLOUDY    25  19  78 E7        29.93S WCI  17
ELLSWORTH AFB  CLOUDY    24  22  90 SE7       30.01R WCI  16
PHILIP         FOG       25  23  92 E15       30.08S VSB 1/4 WCI  13
PINE RIDGE     CLOUDY    29  24  82 NE5       29.99R WCI  24
WINNER         FOG       27  25  92 NE12      30.08S VSB<1/4 WCI  17
$$

SDZ004>011-016>023-039-040-311600-
NORTHEAST SOUTH DAKOTA

CITY           SKY/WX    TMP DP  RH WIND       PRES   REMARKS
ABERDEEN       CLOUDY    19  14  81 NE17      30.23R WCI   4
WATERTOWN      CLOUDY    18  15  88 NE18      30.15R FOG     WCI   2
SISSETON         N/A     17  13  84 NE18      30.25R WCI   1
$$

SDZ017-020-022-023-036>040-048>070-311600-
SOUTHEAST SOUTH DAKOTA

CITY           SKY/WX    TMP DP  RH WIND       PRES   REMARKS
SIOUX FALLS    CLOUDY    26  24  92 NE18      30.14R FOG     WCI  13
HURON          CLOUDY    25  23  92 NE13      30.18R FOG     WCI  14
MITCHELL       CLOUDY    27  25  92 NE14      30.15S FOG     WCI  16
YANKTON        CLOUDY    30  28  93 NE5       30.10S WCI  25
$$

ABBREVIATIONS USED IN REMARKS
   TC - TEMPERATURE IN CELSIUS
  WCI - WIND CHILL INDEX
   HX - HEAT INDEX
  VSB - VISIBILITY



USA.gov is the U.S. government's official web portal to all federal, state and local government web resources and services.